Location: Kaltenbach
(49.2000°N, 7.7500°E)
Time: 19:12:08
(UTC+00:00)

Cosmos 1455 - Pass Details

Date: 24 January 2020
Orbit: 499 x 524 km, 82.5° (Epoch: 16 February)

Event Time Altitude Azimuth Distance (km) Brightness Sun altitude
Rises 17:10:07 0° 356° (N) 2,644 5.7 -9.6°
Reaches altitude 10° 17:12:22 10° 4° (N) 1,748 4.7 -9.9°
Maximum altitude 17:15:59 39° 75° (ENE) 773 2.6 -10.5°
Drops below altitude 10° 17:19:33 10° 146° (SE) 1,719 4.7 -11.0°
Sets 17:21:44 0° 154° (SSE) 2,594 5.7 -11.4°
